Regional Weather Roundup
Issued by NWS Charleston, SC

Current Version | Previous Version | Text Only | Print | Product List | Glossary Off
Versions: 1 2 3 4 5 6 7 8 9 10 11 12 13 14 15 16 17 18 19 20 21 22 23 24 25 26 27 28 29 30 31 32 33 34 35 36 37 38 39 40 41 42 43 44 45 46 47 48 49 50

000
ASUS42 KCHS 070527
RWRCHS

REGIONAL WEATHER ROUNDUP
NATIONAL WEATHER SERVICE CHARLESTON SC
1200 AM EST SUN FEB 07 2016

NOTE: "FAIR" INDICATES FEW OR NO CLOUDS BELOW 12,000 FEET WITH NO
SIGNIFICANT WEATHER AND/OR OBSTRUCTIONS TO VISIBILITY.

NOT ALL STATIONS ARE QUALITY CONTROLLED BY THE NATIONAL
WEATHER SERVICE. USE DATA WITH CAUTION...ESPECIALLY
DEWPOINT OBSERVATIONS.

NOTICE: OBSERVATIONS FOR THE SAVANNAH-HILTON HEAD INTERNATIONAL AIRPORT
/KSAV/ HAVE BEEN TEMPORARILY REMOVED DUE TO AN ERRONEOUS TEMPERATURE
SENSOR. THE OBSERVATION WILL BE REINTRODUCED ONCE REPAIRS ARE COMPLETE.

SCZ027-030-031-034>040-042>050-070600-
...SOUTHEAST SOUTH CAROLINA...

CITY           SKY/WX    TMP DP  RH WIND       PRES   REMARKS
N CHARLESTON   RAIN      40  37  89 NE17G24   30.10F WCI  31
WATERFRONT PRK   N/A     42  40  92 N18       29.96F
MOUNT PLEASANT MOCLDY    39  37  93 N8        30.11F WCI  34
JOHNS ISLAND   RAIN      39  37  93 N14G23    30.10F WCI  31
PINOPOLIS        N/A    N/A N/A N/A NE15      30.05F
MONCKS CORNER  RAIN      36  34  93 N8        30.14F WCI  29
SUMMERVILLE    RAIN      39  39 100 N9        30.13F WCI  33
BEAUFORT MCAS  RAIN      41  39  93 N16       30.10F
BEAUFORT ARPT  RAIN      41  39  93 N14G20    30.09F
HILTON HEAD IS LGT RAIN  43  39  87 N16G24    30.08F
WALTERBORO     NOT AVBL
ALLENDALE      LGT RAIN  41  37  87 CALM      30.12F

...SOUTHERN MIDLANDS AND PEE DEE...

CITY           SKY/WX    TMP DP  RH WIND       PRES   REMARKS
GEORGETOWN     NOT AVBL
KINGSTREE      NOT AVBL
ORANGEBURG     LGT RAIN  43  33  68 N9        30.15F
BARNWELL       CLOUDY    43  37  81 NE6       30.14F
AIKEN          MOCLDY    41  28  60 N7        30.16F
MANNING        RAIN      37  36  93 N7        30.16F WCI  32
COLUMBIA       CLOUDY    47  25  42 NE9       30.17F
SUMTER         LGT RAIN  45  30  57 NE9       30.14F
FLORENCE       LGT RAIN  41  33  73 NE9       30.19F
MYRTLE BEACH   CLOUDY    39  30  70 N13G20    30.17F WCI  32
N MYRTLE BEACH LGT RAIN  40  35  83 N14       30.16F WCI  32

$$

GAZ063-065-086>088-099>101-113>116-118-119-134>141-150-070600-
...SOUTHEAST GEORGIA...

CITY           SKY/WX    TMP DP  RH WIND       PRES   REMARKS
SAVANNAH ARPT  LGT RAIN  41  38  89 N13       30.08F
HUNTER AAF     LGT RAIN  41  40  98 N8G20     30.06F
FORT STEWART   RAIN      41  39  93 N9G17     30.06F
STATESBORO     LGT RAIN  44  42  93 CALM      30.13S
SYLVANIA       LGT RAIN  42  39  89 NE7       30.12F
CLAXTON        LGT RAIN  41  40  97 N8        30.10F

...CSRA...CENTRAL AND FAR SOUTHEAST GEORGIA...

CITY           SKY/WX    TMP DP  RH WIND       PRES   REMARKS
THOMSON        MOCLDY    42  34  72 CALM      30.19F
AUGUSTA-BUSH   CLOUDY    42  37  82 N3        30.16F
AUGUSTA-DANIEL CLOUDY    44  34  67 NW5       30.15F
SWAINSBORO     CLOUDY    41  36  81 NE5       30.14F
VIDALIA        CLOUDY    41  36  81 NE8       30.12F
EASTMAN        FAIR      40  36  84 CALM      30.18S
HAZLEHURST     CLOUDY    42  39  88 N5        30.11F
ALMA           CLOUDY    40  39  97 N6        30.12F WCI  36
WAYCROSS       DRIZZLE   44  43  97 N12       30.10F
JESUP          RAIN      43  43 100 NE9       30.09F
BAXLEY         CLOUDY    43  41  93 N7        30.11F
BRUNSWICK      RAIN      41  41 100 N7        30.08S
SAINT SIMONS   RAIN      42  42 100 N12       30.06F FOG

$$

SCZ027-028-034-036>038-045-046-048>050-GAZ119-141-070600-
...LAKE AND SUPPLEMENTAL COASTAL OBSERVATIONS...

STATION/POSITION TIME  TEMP    WIND        PRES    WAVE   SWELL
                       AIR SEA DIR/SP/G            HT/PER HT/PER/DIR
                 (UTC) (F)     (DEG/KT/KT) (MB)    (FT/S) (FT/S/D)
WINYAH BAY       0445   38      30/ 12     1019.0F
LAKE MURRAY      0400   46      30/  2/  5 1022.4F
ACE BASIN NERRS  0400   40      20/  5     1020.0F
FORT PULASKI     0500   42 54   10/ 14/ 18 1018.1F
SAPELO ISLAND    0500   43      10/ 18     1018.0S

$$

ANZ835-935-AMZ111-154-330-350-352-354-370-450-454-472-070600-
...C-MAN AND BUOY OBSERVATIONS...

STATION/POSITION TIME  TEMP    WIND        PRES    WAVE   SWELL
                       AIR SEA DIR/SP/G            HT/PER HT/PER/DIR
                 (UTC) (F)     (DEG/KT/KT) (MB)    (FT/S) (FT/S/D)
BUOY 41004       0450   49 64   20/ 31/ 39 1015.6F   9/ 7   3/ 9
BUOY 41008       0450   47 55   30/ 27/ 33 1015.8F   8/ 6   2/150/11
FOLLY BEACH CMAN 0500   41      20/ 17/ 19 1019.2F
CAPERS NEARSHORE 0408   43      30/ 25/ 33 1019.1F
FRIPP NEARSHORE  0400   43      30/ 25/ 29 1018.5F


STATION/POSITION TIME  TEMP    WIND        PRES    WAVE   SWELL
                       AIR SEA DIR/SP/G            HT/PER HT/PER/DIR
                 (UTC) (F)     (DEG/KT/KT) (MB)    (FT/S) (FT/S/D)
5E ST. MARYS GA  0421      57                N/A     7/ 7   2/ 90/11
FRYING PAN BUOY  0500   52 68  360/ 27/ 35 1018.0F
BUOY 41025       0450   54 71   30/ 17/ 23 1021.1F   6/ 9   3/ 80/ 9
CAPE LOOKOUT NC  NOT AVBL
BUOY 41002       0450   64 69  110/ 19/ 21   N/A     7/10   5/ 50/10
BUOY 41010       0420   67 75              1014.3F
ST AUGUSTINE FL  0500   45 57  310/ 12/ 15 1017.0F


$$



USA.gov is the U.S. government's official web portal to all federal, state and local government web resources and services.